User: anonymous   Login
Location: Unspecified
(0.0000°N, 0.0000°E)
Time: 17:13:15
(UTC+00:00)
Language:

ALOS - Orbit

View from above orbital plane
View from above orbital plane
View from above satellite
View from above satellite

Ground track
Ground track

The orbit data is extracted from the following two-line orbital elements,

1 28931U 06002A   18292.40454951  .00000159  00000-0  39966-4 0  9997
2 28931  97.8173 299.4353 0000538 125.2089 234.9186 14.62539714678969
Epoch (UTC): 19 October 2018 09:42:33
Eccentricity: 0.0000538
inclination: 97.8173°
perigee height: 684 km
apogee height: 685 km
right ascension of ascending node: 299.4353°
argument of perigee: 125.2089°
revolutions per day: 14.62539714
mean anomaly at epoch: 234.9186°
orbit number at epoch: 67896

The dashed part of the orbit path shows where the satellite is in the earth's shadow,  

DLR